Flag for Canada Weather past 2 weeks in Corner Brook, Newfoundland and Labrador, Canada

Now
41 °F

Drizzle. More clouds than sun.


Feels Like: 31 °F
Forecast: 39 / 42 °F
Wind: 22 mph from Northeast

Location: Deer Lake

Current Time: Oct 25, 2014 at 12:32:04 PM

Latest Report: Oct 25, 2014 at 11:30 AM


Visibility: 10 mi

Pressure: 29.59 "Hg

Humidity: 93%

Dew point: 39 °F

Location of Corner BrookLocation

Historic Weather in Corner Brook — Graph

°F

Corner Brook temperature yesterday

Maximum temperature yesterday: 50 °F (at 12:30 PM)
Minimum temperature yesterday: 27 °F (at 3:30 AM)
Average temperature yesterday: 38 °F

Past Weeks' High & Low Weather Summary

 TemperatureHumidityPressure
High66 °F (Oct 18, 1:30 PM)100% (Oct 11, 6:30 AM)30.47 "Hg (Oct 11, 6:30 AM)
Low25 °F (Oct 23, 2:30 AM)51% (Oct 14, 3:30 PM)29.02 "Hg (Oct 20, 11:30 AM)
Average46 °F85%29.94 "Hg
* Reported Oct 10 11:30 AM — Oct 25 11:30 AM, Corner Brook, Weather by CustomWeather, © 2014

Note: Actual official high and low records may vary slightly from our data, if they occured in-between our weather recording intervals... More about our weather records

Advertising

Corner Brook weather history for previous 24 hours

 ConditionsComfort  
Time TempWeatherWind HumidityBarometerVisibility
11:30 AM
Oct 25
41 °FDrizzle. More clouds than sun.22 mph93%29.59 "Hg10 mi
10:30 AM41 °FDrizzle. Fog.17 mph93%29.60 "Hg6 mi
9:30 AM41 °FSprinkles. Fog.20 mph93%29.61 "Hg4 mi
8:30 AM39 °FSprinkles. Overcast.20 mph100%29.62 "Hg4 mi
7:30 AM39 °FSprinkles. Overcast.16 mph93%29.61 "Hg8 mi
7:18 AM39 °FSprinkles. Overcast.16 mph93%29.61 "Hg8 mi
6:30 AM39 °FLight rain. Fog.16 mph93%29.62 "Hg5 mi
5:30 AM39 °FLight rain. Fog.20 mph93%29.63 "Hg4 mi
4:30 AM39 °FLight rain. Fog.16 mph93%29.64 "Hg6 mi
3:30 AM39 °FLight rain. Fog.16 mph93%29.64 "Hg5 mi
2:30 AM39 °FLight rain. Fog.17 mph93%29.65 "Hg5 mi
1:30 AM39 °FLight rain. Fog.18 mph93%29.66 "Hg4 mi
12:30 AM39 °FLight rain. Fog.16 mph100%29.68 "Hg5 mi
11:30 PM
Oct 24
41 °FLight rain. Mostly cloudy.18 mph93%29.69 "Hg7 mi
10:30 PM41 °FLight rain. Mostly cloudy.21 mph93%29.70 "Hg7 mi
9:30 PM41 °FLight rain. Mostly cloudy.20 mph93%29.73 "Hg7 mi
8:30 PM41 °FLight rain. Overcast.21 mph93%29.76 "Hg7 mi
8:15 PM41 °FLight rain. Overcast.18 mph93%29.76 "Hg7 mi
7:30 PM43 °FLight rain. Mostly cloudy.18 mph93%29.78 "Hg8 mi
6:30 PM43 °FLight rain. More clouds than sun.22 mph87%29.78 "Hg8 mi
5:30 PM45 °FLight rain. Overcast.20 mph81%29.80 "Hg8 mi
4:30 PM46 °FMostly cloudy.20 mph71%29.81 "Hg15 mi
3:30 PM48 °FBroken clouds.16 mph66%29.84 "Hg15 mi
2:30 PM50 °FPartly sunny.18 mph71%29.86 "Hg15 mi
1:30 PM50 °FBroken clouds.15 mph71%29.90 "Hg15 mi
12:30 PM50 °FBroken clouds.16 mph71%29.93 "Hg15 mi
Weather by CustomWeather, © 2014

See weather overviewHow to use our weather pages